Regional Weather Roundup
Issued by NWS Sterling, VA

Home | Current Version | Previous Version | Text Only | Print | Product List | Glossary Off
Versions: 1 2 3 4 5 6 7 8 9 10 11 12 13 14 15 16 17 18 19 20 21 22 23 24 25 26 27 28 29 30 31 32 33 34 35 36 37 38 39 40 41 42 43 44 45 46 47 48 49 50

000
ASUS41 KLWX 271010
RWRLWX

REGIONAL WEATHER ROUNDUP
NATIONAL WEATHER SERVICE BALTIMORE MD/WASHINGTON DC
500 AM EST TUE JAN 27 2015

Note: "FAIR" indicates few or no clouds below 12,000 feet
with no significant weather and/or obstructions to visibility.
 TC=TEMPERATURE CELSIUS

 * =Non NWS site. Station does not report precipitation (e.g. rain,
    snow, etc.), thunder, or fog.

DCZ001-MDZ009-015-VAZ040>042-051-053>054-271100-
WASHINGTON METRO

CITY           SKY/WX    TMP DP  RH WIND       PRES   REMARKS
WASHINGTON NAT FLURRIES  32  23  69 NW12      29.76S WCI  23
DULLES         CLOUDY    28  21  75 NW15G21   29.75S WCI  16
ANDREWS AFB    LGT SNOW  27  25  91 NW13      29.73R FOG     WCI  16
FT BELVOIR     MIX PCPN  28  23  80 NW7       29.76R
QUANTICO         N/A     30  22  72 N17G24    29.77R WCI  18
COLLEGE PARK*  CLOUDY    30  28  93 N6        29.75R
LEESBURG*      FLURRIES  30  27  86 N14G22    29.77S WCI  20
MANASSAS*      CLOUDY    28  27  93 N13       29.76S WCI  18
GAITHERSBURG*  CLOUDY    27  21  80 NW9       29.77R WCI  17

$$

MDZ006>007-011-014-271100-
BALTIMORE METRO

CITY           SKY/WX    TMP DP  RH WIND       PRES   REMARKS
BWI AIRPORT    FLURRIES  28  22  78 NW7       29.73R
MD SCIENCE CTR   N/A     28  22  78 MISG      29.74R
MARTIN STATE   CLOUDY    30  27  86 NW9       29.76R WCI  22
ANNAPOLIS      CLOUDY    30  23  75 NW12      29.73R WCI  20
FORT MEADE*    CLOUDY    28  25  86 NE6       29.76R

$$

MDZ012-015-019>023-271100-
MARYLAND EASTERN SHORE

CITY           SKY/WX    TMP DP  RH WIND       PRES   REMARKS
OCEAN CITY     CLOUDY    30  24  78 N16G26    29.65R WCI  19
SALISBURY      CLOUDY    30  25  81 N13       29.67R WCI  20
BAY BRIDGE AP*   N/A     30  23  74 N15G23    29.73S WCI  19
CAMBRIDGE*     PTCLDY    32  27  80 CALM      29.71R
EASTON*        CLOUDY    30  25  83 N10       29.75R WCI  21

$$

MDZ017>025-271100-
SOUTHERN MARYLAND

CITY           SKY/WX    TMP DP  RH WIND       PRES   REMARKS
PATUXENT RIVER CLOUDY    29  22  75 N18G26    29.71R WCI  16
ST INIGOES     CLOUDY    29  21  72 N13G21    29.71R WCI  19
LEONARDTOWN*   CLOUDY    28  25  86 N8        29.73R WCI  20

$$

MDZ003>005-271100-
NORTH CENTRAL MARYLAND

CITY           SKY/WX    TMP DP  RH WIND       PRES   REMARKS
FREDERICK*     CLOUDY    32  21  64 NE7       29.80R
HAGERSTOWN APT CLOUDY    26  18  71 NW12      29.77R WCI  16
WESTMINSTER*   LGT SNOW  25  21  86 N8        29.72S WCI  16

$$

MDZ501>502-271100-
WESTERN MARYLAND

CITY           SKY/WX    TMP DP  RH WIND       PRES   REMARKS
OAKLAND*       FOG       16 N/A N/A W5        29.69R VSB 1/4
CUMBERLAND*    MOCLDY    28  21  74 CALM      29.85S

$$

VAZ025>031-271100-
SHENANDOAH VALLEY

CITY           SKY/WX    TMP DP  RH WIND       PRES   REMARKS
WINCHESTER*    CLOUDY    30  21  69 NW8       29.77R WCI  23
FRONT ROYAL*   CLOUDY    27  25  93 CALM      29.76S
LURAY*         LGT SNOW  28  28 100 CALM      29.76R
NEW MARKET*    CLOUDY    27  24  91 NE5       29.75S
STAUNTON*      FLURRIES  29  25  87 NE7       29.74S
WAYNESBORO*    CLOUDY    27  25  93 N7        29.71S

$$

WVZ021-048>050-054>055-271100-
EASTERN WEST VIRGINIA PANHANDLE

CITY           SKY/WX    TMP DP  RH WIND       PRES   REMARKS
MARTINSBURG    LGT SNOW  29  19  66 NW15G23   29.78R WCI  18
PETERSBURG*    MOCLDY    26  23  91 CALM      29.80R

$$

VAZ036>039-050-271100-
CENTRAL FOOTHILLS

CITY           SKY/WX    TMP DP  RH WIND       PRES   REMARKS
CHARLOTTESVILL CLOUDY    32  22  66 NW9       29.72R WCI  24
CULPEPER*      LGT SNOW  30  25  80 N9        29.75S WCI  22
ORANGE*        CLOUDY    32  27  80 N7        29.75R
GORDONSVILLE*  CLOUDY    28  24  82 CALM      29.73R
WARRENTON*     CLOUDY    31  28  88 N14       29.74S WCI  21

$$

VAZ055>057-271100-
NORTH AND CENTRAL PIEDMONT

CITY           SKY/WX    TMP DP  RH WIND       PRES   REMARKS
FREDERICKSBRG* CLOUDY    31  26  80 N8G22     29.75R WCI  24
STAFFORD*      CLOUDY    29  26  87 CALM      29.79S

$$

NCZ024-NYZ072-PAZ021-071-VAZ022-071-271100-
OTHER REGIONAL OBSERVATIONS

CITY           SKY/WX    TMP DP  RH WIND       PRES   REMARKS
NEW YORK CITY  LGT SNOW  21  15  78 VRB7G22   29.68S VSB 1
PHILADELPHIA   LGT SNOW  25  21  85 N16G23    29.72R WCI  12
PITTSBURGH     LGT SNOW  19  16  88 NW8       29.85R FOG     WCI   9
ROANOKE        CLEAR     26  13  57 NW7       29.78R
RICHMOND       CLOUDY    31  24  75 N15G28    29.73R WCI  20
RALEIGH        FLURRIES  34  29  82 CALM      29.74R

$$

ANZ530>537-271100-
MARINE OBSERVATIONS

STATION/POSITION TIME  TEMP    WIND        PRES
                       AIR SEA DIR/SP/G
                 (UTC) (F)     (DEG/KT/KT) (MB)
THOMAS PT LIGHT  1000   29 37  340/ 16/ 18 1007.5R
BALT KEY BRIDGE  1000   29     340/ 12/ 13 1006.8S
COVE POINT       1000   28     360/ 19/ 25 1005.9R
LEWISETTA        1000   29 38  360/ 12/ 18 1005.9F
SOLOMONS ISLAND  1000      38                N/A
PINEY POINT      1000          360/ 14/ 17   N/A

$$



USA.gov is the U.S. government's official web portal to all federal, state and local government web resources and services.